This is the latest recevied weather packets stored in our database for station/object N5SRF. If no packets are shown the sender has not sent any weather packets the latest 10 day(s).
| Time | Temp. | Humidity | Pressure | Rain* | Wind** | Luminosity | Snow |
|---|---|---|---|---|---|---|---|
| 1787854943 | 35° C | 62% | 1018 hPa | 0 mm | - | 895 W/m² | - |
| 1787854639 | 35° C | 62% | 1018.1 hPa | 0 mm | - | 264 W/m² | - |
| 1787854333 | 35° C | 62% | 1018.2 hPa | 0 mm | - | 259 W/m² | - |
| 1787854028 | 35° C | 62% | 1018.1 hPa | 0 mm | - | 304 W/m² | - |
| 1787853728 | 35.56° C | 62% | 1018.1 hPa | 0 mm | - | 830 W/m² | - |
| 1787853427 | 36.11° C | 59% | 1018.2 hPa | 0 mm | - | 800 W/m² | - |
| 1787853126 | 36.11° C | 63% | 1018.4 hPa | 0 mm | - | 790 W/m² | - |
| 1787852821 | 36.11° C | 59% | 1018.3 hPa | 0 mm | - | 786 W/m² | - |
| 1787852521 | 35.56° C | 59% | 1018.3 hPa | 0 mm | - | 764 W/m² | - |
| 1787852215 | 35.56° C | 58% | 1018.5 hPa | 0 mm | - | 759 W/m² | - |
| 1787851910 | 35.56° C | 59% | 1018.6 hPa | 0 mm | - | 749 W/m² | - |
| 1787851608 | 36.11° C | 61% | 1018.5 hPa | 0 mm | - | 743 W/m² | - |
| 1787851303 | 36.11° C | 61% | 1018.6 hPa | 0 mm | - | 733 W/m² | - |
| 1787850999 | 36.67° C | 55% | 1018.7 hPa | 0 mm | - | 716 W/m² | - |
| 1787850695 | 36.67° C | 52% | 1018.8 hPa | 0 mm | - | 730 W/m² | - |
| 1787850390 | 36.67° C | 52% | 1019 hPa | 0 mm | - | 730 W/m² | - |
| 1787850086 | 36.11° C | 54% | 1019 hPa | 0 mm | - | 716 W/m² | - |
| 1787849785 | 35.56° C | 56% | 1019.2 hPa | 0 mm | - | 706 W/m² | - |
| 1787849480 | 35.56° C | 56% | 1019 hPa | 0 mm | - | 695 W/m² | - |
| 1787849179 | 35.56° C | 55% | 1019.5 hPa | 0 mm | - | 690 W/m² | - |
| 1787848878 | 35° C | 57% | 1019.2 hPa | 0 mm | - | 689 W/m² | - |
| 1787848573 | 34.44° C | 56% | 1019.4 hPa | 0 mm | - | 687 W/m² | - |
| 1787848273 | 34.44° C | 57% | 1019.5 hPa | 0 mm | - | 347 W/m² | - |
| 1787847968 | 35° C | 57% | 1019.1 hPa | 0 mm | - | 402 W/m² | - |
| 1787847667 | 35° C | 58% | 1019.4 hPa | 0 mm | - | 527 W/m² | - |
* Rain latest hour (hover to see other rain measurements)
** Current wind speed in m/s (hover to see current wind gust speed)